Погода в Верхнеусинском

Россия / Красноярский край     52°14′21″N   93°01′29″E
темп.,
°C
ветер,
м/с
пор.,
м/с
влажн.,
%
обл.,
%
осадки,
мм/ч
давл.,
гПа
погр.,
м
8 мая, сб
сб801:00+9сз2287100 1.5 101242
04:00+6сз2288100 0.0 101542
07:00+8с157854 0.1 1016341
10:00+12ссз254328 0.1 10151949
13:00+15сз363177 0.1 10132662
16:00+15сз593378 0.0 10132758
19:00+12сз39475 0.0 10141819
22:00+7сз256816 0.0 1017169
9 мая, вс
вс901:00+5юз11745 0.0 101712
04:00+4зюз118122 0.0 101724
07:00+6юз127055 0.0 1016191
10:00+10з265753 0.3 10131331
13:00+11з27636 1.1 10121084
16:00+14з6143959 0.1 10092440
19:00+7с348191 0.8 1013580
22:00+2с239088 1.0 1017278
10 мая, пн
пн1001:00+1ссз238752 1.4 1018199
04:00−1ссз228535 0.0 1019142
07:00+1сз23714 0.0 1020402
10:00+6ссз354496 0.0 10191900
13:00+8с343686 0.1 10172361
16:00+9ссв443534 0.0 10172142
19:00+7ссв23471 0.0 1018983
22:000ссв11771 0.0 102118
11 мая, вт
вт1101:00−1св11843 0.0 102010
04:00−2св11885 0.0 102010
07:00+2всв01684 0.0 1018234
10:00+9в134193 0.0 10141112
13:00+13в2331100 0.0 10102080
16:00+14всв2329100 0.0 10082253
19:00+12всв114172 0.0 100832
22:00+5св015928 0.0 101116
12 мая, ср
ср1201:00+4сз1164100 0.0 101123
04:00+4з1181100 0.0 101126
07:00+6зсз1275100 0.0 1011177
10:00+8сз2364100 0.8 10101041
13:00+10ссз2552100 1.7 10101548
16:00+11сз3546100 0.4 10091779
19:00+7сз246995 1.1 1012608
22:00+3зсз239292 0.1 101699